This is the latest recevied weather packets stored in our database for station/object ALTO-WX. If no packets are shown the sender has not sent any weather packets the latest 10 day(s).
| Time | Temp. | Humidity | Pressure | Rain* | Wind** | Luminosity | Snow |
|---|---|---|---|---|---|---|---|
| 1778027449 | 9.44° C | 38% | 979.5 hPa | 0 mm | - | - | - |
| 1778026534 | 10° C | 38% | 979.5 hPa | 0 mm | - | - | - |
| 1778025666 | 10° C | 38% | 979.5 hPa | 0 mm | - | - | - |
| 1778024735 | 10.56° C | 35% | 979.2 hPa | 0 mm | - | - | - |
| 1778023851 | 10.56° C | 34% | 979.2 hPa | 0 mm | - | - | - |
| 1778022935 | 11.11° C | 34% | 979.2 hPa | 0 mm | - | - | - |
| 1778022061 | 11.11° C | 34% | 979.2 hPa | 0 mm | - | - | - |
| 1778021135 | 11.11° C | 34% | 979.2 hPa | 0 mm | - | - | - |
| 1778020253 | 11.11° C | 38% | 979.5 hPa | 0 mm | - | - | - |
| 1778019334 | 11.67° C | 38% | 979.5 hPa | 0 mm | - | - | - |
| 1778018464 | 11.67° C | 38% | 979.5 hPa | 0 mm | - | - | - |
| 1778017534 | 12.22° C | 35% | 979.2 hPa | 0 mm | - | - | - |
| 1778016654 | 11.67° C | 34% | 978.8 hPa | 0 mm | - | - | - |
| 1778015733 | 12.22° C | 34% | 978.8 hPa | 0 mm | - | - | - |
| 1778014865 | 12.22° C | 34% | 978.8 hPa | 0 mm | - | - | - |
| 1778013934 | 12.22° C | 36% | 979.3 hPa | 0 mm | - | - | - |
| 1778013055 | 12.22° C | 35% | 978.4 hPa | 0 mm | - | - | - |
| 1778012134 | 12.22° C | 35% | 978.4 hPa | 0 mm | - | - | - |
| 1778011262 | 12.22° C | 35% | 978.4 hPa | 0 mm | - | - | - |
| 1778010333 | 12.22° C | 35% | 978.2 hPa | 0 mm | - | - | - |
| 1778009450 | 12.78° C | 35% | 978.2 hPa | 0 mm | - | - | - |
| 1778008536 | 12.78° C | 35% | 978.2 hPa | 0 mm | - | - | - |
| 1778007661 | 12.78° C | 35% | 978.2 hPa | 0 mm | - | - | - |
| 1778006736 | 12.78° C | 33% | 978.8 hPa | 0 mm | - | - | - |
| 1778005858 | 12.78° C | 35% | 978.1 hPa | 0 mm | - | - | - |
* Rain latest hour (hover to see other rain measurements)
** Current wind speed in m/s (hover to see current wind gust speed)